Location: Chippewa Lake
(41.0698°N, 81.9010°W)
Time: 21:39:59
(UTC+00:00)

ISS - Pass Details

Date: 09 May 2021
Orbit: 417 x 422 km, 51.6° (Epoch: 17 June)

Event Time Altitude Azimuth Distance (km) Brightness Sun altitude
Exits shadow 07:47:12 - 316° (NW) 1,694 -0.6 -22.7°
Reaches altitude 10° 07:47:58 10° 325° (NW) 1,508 -0.7 -22.6°
Maximum altitude 07:49:48 14° 358° (N) 1,300 -0.7 -22.4°
Drops below altitude 10° 07:51:38 10° 31° (NNE) 1,510 0.2 -22.2°
Sets 07:54:33 0° 59° (ENE) 2,375 1.3 -21.9°
